Location: Unspecified
(0.0000°N, 0.0000°E)
Time: 22:05:24
(UTC+00:00)

Alouette 1 - Pass Details

Date: 28 October 2021
Orbit: 985 x 1019 km, 80.5° (Epoch: 07 December)

Event Time Altitude Azimuth Distance (km) Brightness Sun altitude
Rises 17:53:30 0° 359° (N) 3,733 8.9 -2.4°
Reaches altitude 10° 17:56:03 10° 1° (N) 2,781 8.3 -3.0°
Maximum altitude 18:02:26 72° 85° (E) 1,054 6.1 -4.5°
Drops below altitude 10° 18:08:47 10° 168° (SSE) 2,768 8.4 -6.1°
Sets 18:11:19 0° 170° (S) 3,714 9.1 -6.7°
